Location: Chisholm
(54.9102°N, 114.1701°W)
Time: 09:54:18
(UTC+00:00)

Envisat - Visible Passes

Search period start: 30 November 2021 00:00
Search period end: 10 December 2021 00:00
Orbit: 764 x 766 km, 98.2° (Epoch: 29 November)

Date Brightness Start Highest point End Pass type
(mag) Time Alt. Az. Time Alt. Az. Time Alt. Az.
30 Nov 5.8 01:01:20 10° SW 01:04:58 20° W 01:08:39 10° NW visible
30 Nov 5.6 11:22:47 10° NE 11:26:08 17° E 11:29:28 10° SE visible
30 Nov 2.9 13:00:46 10° NNE 13:05:54 90° ENE 13:10:59 10° SSW visible
30 Nov 4.2 14:40:38 10° N 14:44:19 21° NW 14:48:00 10° W visible
01 Dec 4.8 00:23:03 10° SSW 00:27:43 36° W 00:32:24 10° NNW visible
01 Dec 3.9 12:23:58 10° NNE 12:28:56 49° E 12:33:51 10° S visible
01 Dec 3.6 14:03:16 10° N 14:07:50 34° WNW 14:12:22 10° SW visible
02 Dec 6.1 01:28:32 10° WSW 01:30:41 13° W 01:32:50 10° WNW visible
02 Dec 5.0 11:47:29 10° NE 11:51:46 26° E 11:56:01 10° SSE visible
02 Dec 3.0 13:26:09 10° N 13:31:10 60° WNW 13:36:10 10° SSW visible
03 Dec 5.5 00:49:14 10° SW 00:53:17 23° W 00:57:21 10° NW visible
03 Dec 5.8 11:11:41 10° NE 11:14:24 14° E 11:17:07 10° ESE visible
03 Dec 3.1 12:49:13 10° NNE 12:54:20 76° ESE 12:59:25 10° S visible
03 Dec 4.0 14:28:53 10° N 14:32:54 24° NW 14:36:53 10° WSW visible
04 Dec 4.4 00:11:15 10° S 00:16:04 43° W 00:20:57 10° NNW visible
04 Dec 4.2 12:12:29 10° NNE 12:17:18 40° E 12:22:05 10° SSE visible
04 Dec 3.4 13:51:37 10° N 13:56:21 40° WNW 14:01:04 10° SW visible
05 Dec 5.9 01:15:59 10° WSW 01:18:56 15° W 01:21:54 10° NW visible
05 Dec 5.3 11:36:08 10° NE 11:40:05 22° E 11:44:00 10° SE visible
05 Dec 2.9 13:14:33 10° NNE 13:19:38 72° WNW 13:24:42 10° SSW visible
05 Dec 4.4 14:54:40 10° N 14:57:53 17° NW 15:01:05 10° W visible
06 Dec 5.2 00:37:15 10° SSW 00:41:36 28° W 00:45:59 10° NNW visible
06 Dec 6.0 11:00:53 10° ENE 11:02:39 12° E 11:04:25 10° ESE visible
06 Dec 3.4 12:37:40 10° NNE 12:42:45 63° ESE 12:47:47 10° S visible
06 Dec 3.8 14:17:11 10° N 14:21:27 28° WNW 14:25:43 10° WSW visible
06 Dec 4.0 23:59:30 10° S 00:04:27 52° W 00:09:27 10° NNW visible
07 Dec 4.6 12:01:02 10° NNE 12:05:39 34° E 12:10:15 10° SSE visible
07 Dec 3.2 13:39:58 10° N 13:44:52 48° WNW 13:49:43 10° SW visible
08 Dec 5.8 01:03:42 10° SW 01:07:13 19° W 01:10:45 10° NW visible
08 Dec 5.5 11:24:52 10° NE 11:28:23 18° E 11:31:52 10° SE visible
08 Dec 2.9 13:02:58 10° NNE 13:08:05 86° WNW 13:13:11 10° SSW visible
08 Dec 4.2 14:42:53 10° N 14:46:28 20° NW 14:50:03 10° W visible
09 Dec 4.9 00:25:21 10° SSW 00:29:56 34° W 00:34:34 10° NNW visible
09 Dec 3.7 12:26:09 10° NNE 12:31:08 52° E 12:36:05 10° S visible
09 Dec 3.6 14:05:30 10° N 14:10:00 32° WNW 14:14:29 10° WSW visible
